Starlink 5093

operational
NORAD ID: 56332 Int'l Des: 2023-058 Owner: SPXS Country: US Constellation: starlink
LEOCIRCULARRETROGRADESSO

About Starlink 5093

Description loading...

Live Position

Loading 3D Globe...

Upcoming Passes

Altitude History

Altitude vs Time

uPlot chart will show altitude changes over time

Two-Line Element Set

1 56332U 23058R 25353.74792128 .00000606 00000-0 51682-4 0 9993
2 56332 97.6051 351.9032 0002340 79.3620 280.7867 15.01261359146134
Epoch: Dec 19, 2025 • Age: 8 hours

Current Status

Altitude 566.0 km
Velocity 7.58 km/s
Sub-Earth Point 31.52°N, 132.69°W
Launch Date Apr 27, 2023
Age 2.6 years
Type internet

Technical Details

Classification Payload
Mass 300.00 kg
Dry Mass 260.00 kg
Total Mass 300.00 kg
Length 0.20 m
Diameter 2.80 m
Span 9.00 m
Shape Box + pan
Manufacturer SPXS
Bus Type Starlink
Phase Status In Orbit
Owner/State SPXS/US

Large Constellations

Loading constellations...